EW1736 Weather Reports


Display with metric or nautical units.
time (UTC)temp
F
wind
direction
speed
MPH
gust
MPH
rain 1hr
in
rain 24hr
in
rain mn
in
humidity
%
barometer
mb
20260510173848 57 234 5.0 11.0 0.00 0.00 0.00 84 1011.3
20260510171647 57 238 8.0 10.0 0.00 0.00 0.00 84 1011.0
20260510170142 58 244 9.0 11.0 0.00 0.00 0.00 84 1010.9
20260510164642 58 236 4.0 7.0 0.00 0.00 0.00 83 1010.8
20260510163836 57 206 4.0 8.0 0.00 0.00 0.00 83 1010.6
20260510161633 57 216 0.0 3.0 0.00 0.00 0.00 82 1010.4
20260510160129 58 215 2.0 5.0 0.00 0.00 0.00 82 1010.4
20260510154625 58 259 2.0 4.0 0.00 0.00 0.00 82 1010.2
20260510153125 58 305 0.0 7.0 0.00 0.00 0.00 81 1010.1
20260510151625 59 246 5.0 10.0 0.00 0.00 0.00 81 1009.8
20260510150121 59 204 7.0 15.0 0.00 0.00 0.00 80 1009.5
20260510144617 60 190 10.0 17.0 0.00 0.00 0.00 80 1009.4
20260510143118 60 200 10.0 19.0 0.00 0.00 0.00 80 1009.1
20260510141613 60 217 12.0 18.0 0.00 0.00 0.00 80 1009.0
20260510140113 60 201 10.0 20.0 0.00 0.00 0.00 79 1008.9
20260510135306 60 211 8.0 15.0 0.00 0.00 0.00 82 1009.0
20260510133105 61 205 9.0 22.0 0.00 0.00 0.00 81 1008.9
20260510131606 61 243 10.0 17.0 0.00 0.00 0.00 81 1008.6
20260510130753 61 225 11.0 18.0 0.00 0.00 0.00 80 1008.5
20260510124557 61 248 14.0 22.0 0.00 0.00 0.00 81 1008.1
20260510123057 62 240 18.0 24.0 0.00 0.00 0.00 80 1007.8
20260510121553 62 235 16.0 26.0 0.00 0.00 0.00 81 1007.7
20260510120054 62 215 16.0 25.0 0.00 0.00 0.00 81 1007.6
20260510114549 62 242 15.0 22.0 0.00 0.00 0.00 81 1007.4
20260510113045 61 273 11.0 18.0 0.00 0.00 0.00 84 1007.4
20260510111545 61 225 10.0 18.0 0.00 0.00 0.00 83 1007.2
20260510110042 62 232 13.0 22.0 0.00 0.00 0.00 83 1007.1
20260510104543 62 195 12.0 19.0 0.00 0.00 0.00 83 1006.9
20260510103038 61 232 9.0 14.0 0.00 0.00 0.00 82 1007.0
20260510101536 62 254 11.0 17.0 0.00 0.00 0.00 82 1006.7
20260510100034 62 236 8.0 16.0 0.00 0.00 0.00 82 1006.6
20260510094529 62 207 5.0 11.0 0.00 0.00 0.00 83 1006.6
20260510093030 62 216 5.0 10.0 0.00 0.00 0.00 83 1006.3
20260510092232 61 312 4.0 8.0 0.00 0.00 0.00 83 1006.2
20260510090721 61 299 4.0 16.0 0.00 0.00 0.00 83 1006.0
20260510084524 62 277 10.0 14.0 0.00 0.00 0.00 82 1005.6
20260510083019 62 217 4.0 15.0 0.00 0.00 0.00 81 1005.7
20260510081519 62 261 6.0 18.0 0.00 0.00 0.00 81 1005.5
20260510080015 62 50 1.0 5.0 0.00 0.00 0.00 81 1005.2
20260510074515 62 27 5.0 11.0 0.00 0.00 0.00 81 1005.0
20260510073009 62 180 1.0 17.0 0.00 0.00 0.00 81 1005.1
20260510071514 62 228 11.0 22.0 0.00 0.00 0.00 82 1004.9
20260510070006 62 244 8.0 26.0 0.00 0.00 0.00 82 1004.6
20260510064501 62 229 13.0 20.0 0.00 0.00 0.00 81 1004.2
20260510062958 62 273 12.0 20.0 0.00 0.00 0.00 81 1004.0
20260510061454 62 252 12.0 23.0 0.00 0.00 0.00 80 1003.7
20260510055952 62 213 9.0 17.0 0.00 0.00 0.00 80 1003.6
20260510054450 63 232 9.0 17.0 0.00 0.00 0.00 79 1003.4
20260510052944 63 24 2.0 13.0 0.00 0.00 0.00 77 1003.2
20260510051441 63 29 3.0 20.0 0.00 0.00 0.00 77 1003.2
20260510045941 63 270 9.0 22.0 0.00 0.00 0.00 77 1002.8
20260510044436 64 267 9.0 18.0 0.00 0.00 0.00 77 1002.9
20260510042932 64 264 6.0 31.0 0.00 0.00 0.00 77 1002.8
20260510041432 65 252 13.0 26.0 0.00 0.00 0.00 75 1002.6
20260510040625 65 266 8.0 27.0 0.00 0.00 0.00 75 1002.6
20260510034429 65 267 8.0 25.0 0.00 0.00 0.00 78 1002.9
20260510032928 66 236 13.0 31.0 0.00 0.00 0.00 76 1002.7
20260510031424 67 234 13.0 29.0 0.00 0.00 0.00 74 1002.6
20260510025926 66 264 16.0 25.0 0.00 0.00 0.00 76 1002.5
20260510024420 66 220 11.0 21.0 0.00 0.00 0.00 75 1002.5
20260510022920 67 227 13.0 21.0 0.00 0.00 0.00 74 1002.4
20260510021416 66 246 14.0 25.0 0.00 0.00 0.00 75 1002.4
20260510015917 65 220 6.0 14.0 0.00 0.00 0.00 74 1002.3
20260510014414 65 226 7.0 14.0 0.00 0.00 0.00 78 1002.2
20260510013600 64 216 4.0 22.0 0.00 0.00 0.00 78 1002.4
20260510012101 64 245 7.0 15.0 0.00 0.00 0.00 79 1002.4
20260510005904 64 292 8.0 17.0 0.00 0.01 0.00 78 1002.4
20260510004405 65 267 11.0 24.0 0.00 0.01 0.00 76 1002.4
20260510002900 66 267 17.0 23.0 0.00 0.01 0.00 76 1002.5
20260510001400 66 257 13.0 25.0 0.00 0.01 0.00 75 1002.6
20260509235855 65 234 17.0 25.0 0.00 0.01 0.00 73 1002.6
20260509234356 65 246 13.0 22.0 0.00 0.01 0.00 75 1002.7
20260509232852 64 209 13.0 19.0 0.00 0.01 0.00 77 1003.0
20260509231352 63 201 10.0 25.0 0.00 0.01 0.00 79 1003.4
20260509225848 63 235 16.0 24.0 0.00 0.01 0.00 78 1003.3
20260509224348 62 234 7.0 14.0 0.00 0.01 0.00 82 1003.2
20260509222844 62 257 11.0 20.0 0.00 0.01 0.00 83 1003.1
20260509221340 61 268 15.0 21.0 0.00 0.01 0.00 85 1003.1
20260509215835 60 0 13.0 18.0 0.00 0.01 0.00 87 1003.2
20260509215032 60 271 13.0 21.0 0.00 0.01 0.00 86 1003.1
20260509212831 60 275 11.0 18.0 0.00 0.01 0.00 86 1003.2
20260509211327 59 269 13.0 16.0 0.00 0.01 0.00 87 1003.4
20260509205827 58 265 10.0 18.0 0.00 0.01 0.00 89 1003.4
20260509204323 58 265 14.0 18.0 0.00 0.01 0.00 88 1003.7
20260509203516 58 247 11.0 14.0 0.00 0.01 0.00 88 1003.5
20260509201319 58 246 9.0 11.0 0.00 0.01 0.00 89 1003.3
20260509195815 57 295 7.0 9.0 0.00 0.01 0.00 89 1003.2
20260509194317 57 275 5.0 13.0 0.00 0.01 0.00 89 1003.2
20260509192810 56 286 7.0 9.0 0.00 0.01 0.00 90 1003.0
20260509191311 56 307 6.0 9.0 0.00 0.01 0.00 90 1002.9
20260509185807 56 325 3.0 9.0 0.00 0.01 0.00 91 1003.0
20260509185012 55 311 7.0 10.0 0.00 0.01 0.00 91 1003.0
20260509182759 55 325 5.0 9.0 0.00 0.01 0.00 92 1003.1
20260509181958 54 319 2.0 6.0 0.00 0.01 0.00 92 1003.0
20260509175755 55 296 3.0 9.0 0.00 0.01 0.00 92 1002.9
20260509174250 54 257 5.0 9.0 0.00 0.01 0.00 93 1002.7